Overview Statistics Trail Chart Weather Telemetry Raw packets
 

This is the latest recevied weather packets stored in our database for station/object SQ4IXR-4. If no packets are shown the sender has not sent any weather packets the latest 10 day(s).

<< 31 32 33 34 35 36 37 >>
Time Temp. Humidity Pressure Rain* Wind** Luminosity Snow
1787980158 16.67° C 67% 1017.2 hPa - - - -
1787979335 16.11° C 69% 1017.5 hPa - - - -
1787978509 16.11° C 68% 1017.7 hPa - - - -
1787977686 16.11° C 70% 1017.9 hPa - - - -
1787976863 15.56° C 72% 1018 hPa - - - -
1787976039 15.56° C 74% 1018.2 hPa - - - -
1787975216 15° C 75% 1018.3 hPa - - - -
1787974393 15° C 76% 1018.6 hPa - - - -
1787973570 15° C 76% 1018.5 hPa - - - -
1787972746 15° C 76% 1018.6 hPa - - - -
1787971924 15° C 76% 1018.7 hPa - - - -
1787971101 15.56° C 74% 1018.8 hPa - - - -
1787970278 15° C 77% 1018.7 hPa - - - -
1787969454 15° C 77% 1018.9 hPa - - - -
1787968632 15° C 76% 1019.3 hPa - - - -
1787967809 15° C 74% 1019.6 hPa - - - -
1787966986 15.56° C 73% 1020 hPa - - - -
1787966162 15.56° C 72% 1020 hPa - - - -
1787965339 15.56° C 71% 1020.2 hPa - - - -
1787964516 15.56° C 70% 1020.5 hPa - - - -
1787963693 16.11° C 68% 1020.4 hPa - - - -
1787962871 16.11° C 66% 1020.7 hPa - - - -
1787962047 16.67° C 64% 1020.8 hPa - - - -
1787961224 16.67° C 62% 1021 hPa - - - -
1787960402 17.22° C 61% 1021.2 hPa - - - -

* Rain since midnight (hover to see other rain measurements)
** Current wind speed in m/s (hover to see current wind gust speed)